Theta_e
276 274 273 272 272 272 271 271 270 270 270 269 269 269 268 268 267 266 266 266 266 265 265 265 265 265 265 265 264 264 264 264 264 264 264 264 263 263 263 263 263 262 263 265 265 264 264 265 265 266 266 266 266 266 266 266 266 266 266 266 267 267 268
275 273 272 272 272 271 271 271 270 270 269 269 269 268 268 267 266 266 266 266 265 265 265 265 265 264 264 264 264 264 264 264 264 264 264 263 263 263 263 263 263 263 262 264 264 264 264 265 264 265 265 266 266 265 265 265 265 265 266 266 266 266 267
274 273 272 272 271 271 271 270 270 269 269 269 269 268 267 267 266 266 266 265 265 265 265 264 264 264 264 264 264 264 264 264 264 264 263 264 263 263 263 263 263 263 262 263 264 264 264 264 264 264 264 265 265 265 265 265 265 265 265 265 266 266 266
273 272 272 272 271 271 270 270 270 269 269 269 268 268 267 266 266 266 265 265 265 265 264 264 264 264 264 264 264 263 263 264 264 264 264 263 263 263 263 263 263 263 263 263 263 263 263 264 264 264 264 264 264 264 265 265 264 265 265 265 265 265 266
273 272 272 271 271 271 270 270 269 269 269 269 268 267 267 266 266 266 265 265 265 264 264 264 264 264 264 263 263 263 264 264 264 264 263 263 263 263 263 263 263 263 263 263 263 263 263 263 263 263 263 263 264 264 264 264 264 264 264 264 265 265 265
272 272 272 271 271 270 270 269 269 269 269 268 268 267 267 266 266 266 265 265 265 265 264 264 264 264 264 263 263 264 264 264 264 264 263 263 263 263 263 263 263 263 263 263 263 263 263 263 263 263 263 263 263 263 263 263 264 264 264 264 265 265 265
272 272 271 271 270 270 270 269 269 269 269 268 268 267 267 266 266 266 265 265 265 265 265 264 264 264 264 264 264 264 264 264 264 264 263 263 263 263 263 263 263 263 263 263 263 262 263 263 263 263 263 263 263 263 263 263 263 264 264 264 265 265 265
272 271 271 270 270 270 269 269 269 269 268 268 268 267 267 266 266 266 265 265 265 265 265 265 265 264 264 265 264 264 264 264 264 264 263 263 263 263 263 263 263 263 263 263 262 262 263 263 263 263 263 263 263 263 263 263 263 263 264 264 265 265 265
271 271 270 270 269 269 269 269 269 268 268 268 267 267 267 266 266 266 266 265 265 265 265 265 265 265 265 265 265 265 264 264 264 264 263 263 263 263 263 263 263 263 263 263 262 262 263 263 263 263 263 263 262 263 263 263 263 263 263 264 264 264 265
271 270 270 270 269 269 269 268 269 268 268 267 267 267 266 266 266 266 266 266 266 266 266 266 265 265 265 265 265 265 265 264 264 264 264 263 263 263 263 263 263 263 263 263 262 262 263 262 263 263 263 263 262 262 262 262 262 263 263 263 263 264 265
270 270 270 269 269 269 268 269 268 268 268 267 267 266 266 266 266 266 266 266 265 265 265 265 265 265 265 265 264 264 264 264 264 264 263 263 263 263 263 263 263 263 263 262 262 262 262 262 263 263 263 262 262 262 262 262 263 263 263 263 263 263 264
270 270 269 269 269 268 268 268 268 268 267 267 267 266 266 266 266 266 265 265 265 264 264 264 264 264 264 264 264 264 264 263 263 263 263 263 262 262 262 262 262 263 263 263 262 262 262 262 262 262 262 262 262 262 262 262 263 263 263 263 263 263 264
270 269 269 269 269 268 268 268 268 268 267 267 267 267 266 266 266 266 266 265 265 264 264 264 264 263 263 264 263 263 263 263 263 262 262 262 262 262 262 262 263 263 263 263 262 262 262 262 262 262 262 262 262 262 262 262 263 263 263 263 263 264 264
269 269 269 269 268 268 268 268 268 268 268 267 267 267 267 267 266 266 266 266 265 265 264 264 264 263 263 263 263 263 263 262 262 262 262 262 262 262 262 263 263 263 263 263 263 262 262 262 262 262 262 262 262 262 262 263 263 263 263 263 263 264 264
269 269 269 269 268 268 268 268 268 268 268 267 267 267 267 267 266 266 265 265 265 264 264 264 264 263 263 263 263 263 263 262 262 262 262 262 262 262 263 263 263 263 263 263 263 263 263 262 262 262 262 263 263 263 263 263 264 264 264 263 263 263 263
269 269 269 268 268 268 268 268 268 268 267 267 267 266 266 266 266 266 266 265 265 265 265 264 264 263 263 262 262 262 262 262 262 262 262 262 262 263 263 263 263 263 263 263 263 263 263 263 263 263 263 264 264 264 264 264 264 264 263 263 263 263 263
269 268 268 268 268 268 268 268 268 267 267 267 267 266 266 265 265 265 265 264 264 264 264 264 263 263 262 262 262 262 263 262 262 261 261 262 263 263 263 263 263 263 263 263 263 263 264 264 264 264 264 265 265 264 264 264 263 263 263 262 262 262 262
268 268 268 268 268 268 268 268 268 267 267 267 266 266 265 265 265 264 264 263 263 263 263 263 263 262 262 262 262 262 262 263 262 262 262 262 262 262 263 263 263 264 263 263 264 264 264 264 264 264 264 264 264 264 264 264 263 263 263 262 262 262 262
268 268 268 268 268 268 268 268 267 267 267 267 266 266 265 265 265 264 264 263 263 263 263 263 263 263 262 262 262 263 263 263 263 263 263 263 263 262 263 263 263 263 263 263 263 263 263 263 264 264 264 264 264 263 263 263 263 263 262 262 262 262 262
268 268 268 268 268 268 267 267 267 267 267 266 266 266 265 265 264 264 263 262 262 262 262 263 263 263 263 262 262 263 263 264 264 264 264 264 263 263 263 264 263 263 263 263 263 263 263 263 263 263 263 263 263 263 263 263 263 262 262 262 262 262 262
268 268 268 268 268 268 267 267 267 267 267 266 266 266 265 264 264 264 263 262 262 262 262 263 263 263 263 262 262 263 263 264 264 264 264 264 264 264 264 264 263 263 263 263 262 262 262 262 262 262 262 262 262 262 262 262 262 262 262 262 262 262 262
268 268 268 268 268 267 267 267 267 267 266 266 266 266 266 265 264 264 263 262 262 262 262 262 262 262 262 262 262 263 264 264 264 264 264 264 264 264 264 263 263 263 263 262 262 262 262 262 262 262 261 261 261 261 261 261 261 262 262 261 261 261 261
268 268 268 268 268 268 267 267 266 266 266 266 266 266 265 265 264 263 262 262 262 262 262 262 262 262 262 262 262 263 264 264 264 264 264 264 264 263 263 263 263 263 262 262 262 262 261 261 261 262 261 261 261 261 261 261 261 261 261 261 261 261 261
268 267 268 268 268 268 267 267 266 266 266 266 266 266 265 264 264 263 262 262 262 262 262 262 262 262 262 263 263 263 263 264 264 263 263 263 263 263 263 263 262 262 262 262 262 262 262 261 261 261 261 261 261 261 261 261 261 261 261 261 261 261 261
268 267 267 268 268 268 267 266 266 266 266 266 265 265 264 263 263 263 263 262 262 262 262 262 262 262 263 263 263 263 263 263 263 263 263 263 263 263 263 262 262 262 262 262 261 261 261 261 261 261 261 260 260 260 260 260 260 260 261 260 260 260 261
267 267 267 267 267 267 267 266 266 266 266 265 265 264 263 263 262 263 263 262 262 262 262 262 262 262 262 262 262 262 262 262 262 262 262 262 262 262 262 262 262 261 261 261 261 260 260 260 260 260 260 260 260 260 260 260 259 260 260 260 259 260 261
267 267 267 267 267 267 266 266 266 266 265 265 264 264 264 263 263 263 263 263 263 263 263 263 262 262 262 262 262 262 262 262 262 262 262 262 262 261 261 261 261 260 260 260 260 259 259 259 259 259 259 259 259 259 259 259 259 259 259 259 259 259 260
267 267 267 266 266 266 266 266 266 265 265 265 265 264 264 264 263 264 264 263 263 263 263 263 262 262 262 262 262 262 262 262 262 261 261 261 261 261 260 260 260 259 259 259 259 258 258 258 258 258 259 258 258 259 259 258 258 258 259 259 258 259 260
266 266 266 266 266 266 266 265 265 265 264 264 264 264 264 264 264 264 264 264 263 263 263 262 262 262 262 262 262 262 261 261 261 261 261 260 260 260 260 259 259 259 258 258 258 257 258 258 258 258 258 258 257 258 258 258 258 258 258 258 258 258 259
266 266 266 266 266 266 265 264 264 263 262 263 264 264 264 264 264 264 264 263 263 262 262 262 262 262 261 261 261 261 261 261 261 260 260 260 259 259 259 258 258 258 257 257 257 257 257 257 257 258 257 257 257 257 257 257 257 258 258 258 258 259 259
266 265 265 265 264 264 263 263 263 262 262 262 264 264 264 264 264 264 264 263 262 262 262 262 261 261 261 261 261 261 260 260 260 259 259 259 258 258 258 257 257 257 256 256 256 256 257 256 256 256 256 256 256 256 257 257 257 257 258 258 258 258 259
265 265 265 264 264 263 263 263 263 262 262 263 264 264 264 264 264 264 264 263 262 262 262 262 261 261 261 260 260 260 259 259 259 258 258 258 257 257 257 257 256 256 256 256 256 256 256 255 255 255 255 255 255 256 256 256 257 257 257 258 258 258 258
265 265 265 264 264 264 264 264 263 263 263 263 263 263 263 263 263 263 263 262 262 261 261 261 260 260 260 259 259 259 258 258 258 257 257 257 257 257 256 256 256 255 255 255 255 255 255 254 254 254 254 254 254 255 255 256 256 257 257 257 258 258 258
265 265 264 264 264 264 264 264 263 263 263 263 262 262 262 262 262 262 261 261 260 260 260 259 259 259 259 258 258 258 257 257 257 257 257 256 256 256 256 255 255 254 254 254 254 254 254 253 253 253 253 253 254 254 254 255 256 256 257 257 257 258 258
266 265 264 264 264 264 263 263 263 263 263 263 263 262 262 261 260 260 260 260 259 259 259 259 259 258 258 258 257 257 257 257 256 256 256 255 255 255 255 254 254 253 253 253 253 253 253 253 252 252 252 252 253 253 254 255 255 256 256 256 257 257 258
265 265 264 264 264 263 263 262 262 262 262 262 262 261 260 259 259 259 259 259 259 259 258 258 258 258 257 257 257 256 256 256 256 255 255 255 255 254 254 253 253 253 252 252 252 252 252 251 251 252 252 252 252 253 254 254 255 256 256 256 256 257 257
Wind_Speed
35 34 33 32 31 30 29 29 29 30 30 30 31 31 31 31 30 31 32 33 33 32 31 30 30 31 31 30 31 31 30 29 28 28 28 28 29 31 31 32 34 40 47 48 44 41 42 41 39 40 39 37 37 36 36 36 35 35 34 34 34 35 34
35 34 33 32 31 30 30 30 30 30 31 31 32 32 31 31 31 32 33 33 33 32 31 31 31 31 31 31 32 32 31 30 29 28 29 29 29 31 33 33 35 38 43 47 45 40 40 40 38 39 39 38 38 37 36 36 36 35 34 34 33 34 34
35 34 33 32 32 31 30 31 31 31 32 32 33 33 32 31 31 32 33 34 34 33 31 31 32 32 32 32 33 33 32 31 30 30 30 30 30 32 33 34 35 37 40 43 43 40 40 40 38 37 38 39 39 39 38 37 36 35 34 33 32 33 34
35 34 33 33 32 31 31 31 32 32 33 33 33 33 32 32 32 33 34 35 34 33 32 32 32 33 33 32 33 34 33 32 31 30 31 31 31 32 34 34 34 35 37 40 42 41 40 40 39 39 39 39 39 39 39 37 36 35 33 32 32 32 33
35 34 33 33 32 31 31 32 32 33 34 34 34 33 33 32 33 34 34 35 35 34 33 33 33 34 33 33 34 34 33 32 31 31 31 31 31 32 33 33 33 34 36 38 40 41 40 40 40 40 39 39 39 39 39 38 37 35 33 31 31 31 32
35 34 33 33 32 32 32 32 33 33 34 34 34 34 34 34 34 35 36 36 36 35 34 34 34 34 33 33 33 33 32 31 31 30 31 31 31 31 32 33 34 35 36 37 39 40 41 41 41 41 41 38 38 38 38 37 36 35 33 32 32 32 32
35 34 33 32 32 32 33 33 33 34 34 35 34 34 34 34 35 36 36 37 37 36 35 35 34 34 33 31 31 32 31 30 30 30 31 31 31 31 32 33 34 35 36 37 38 39 40 41 41 41 41 39 37 37 36 34 34 35 35 33 33 33 32
34 33 32 32 32 32 33 33 34 34 34 34 34 34 34 35 35 36 37 37 37 35 34 34 33 32 31 30 30 31 31 31 31 31 31 32 32 32 33 34 35 36 36 37 38 39 40 41 41 41 40 38 36 35 34 30 31 36 36 34 34 33 31
32 32 32 32 32 32 33 33 34 34 35 34 34 34 34 35 35 36 36 36 35 33 32 32 32 32 32 31 31 31 31 31 31 31 33 33 33 33 33 34 35 36 36 37 38 39 38 40 41 41 39 37 35 34 34 32 32 36 36 34 34 33 30
31 31 32 32 32 32 33 34 35 35 34 34 34 34 34 35 34 34 34 34 34 33 33 34 34 34 34 34 33 33 33 33 32 33 33 33 33 33 34 35 35 36 36 36 38 38 37 39 41 39 36 37 36 34 34 34 35 36 36 35 37 36 30
31 31 31 31 32 33 34 35 35 35 33 33 32 31 32 33 34 34 36 37 37 36 36 37 37 37 36 36 36 35 34 33 33 33 33 33 33 34 34 35 35 35 35 35 36 37 36 38 40 40 38 39 38 36 36 36 36 36 36 35 38 40 36
31 31 30 31 33 34 35 35 34 34 33 33 32 30 29 30 32 35 37 38 38 38 37 37 38 39 38 38 37 35 34 33 33 33 32 33 32 32 33 34 35 36 37 37 38 39 39 41 42 42 42 40 38 36 36 36 36 36 36 37 38 41 40
30 30 30 31 34 35 35 35 34 33 33 32 32 30 28 29 31 34 36 37 38 38 37 37 37 38 39 38 37 35 35 34 34 34 33 33 33 33 34 34 34 35 37 38 40 40 40 41 41 42 41 38 36 36 37 38 38 37 36 38 40 41 41
29 30 31 32 34 35 35 34 33 33 32 32 31 30 27 28 30 33 35 37 37 37 37 37 37 37 38 38 38 37 36 36 36 36 36 36 36 36 35 34 34 34 34 36 37 39 40 40 40 41 40 37 36 37 37 37 37 37 38 41 42 41 41
30 31 32 32 33 34 35 34 32 31 31 31 31 29 27 28 31 34 36 37 38 38 39 39 39 39 39 39 38 37 37 37 38 38 37 37 37 36 34 33 33 32 31 31 32 34 36 36 36 36 36 35 33 33 34 35 37 39 40 41 40 37 35
31 31 31 32 32 34 35 33 31 30 30 30 30 29 29 31 33 35 37 38 38 39 39 39 39 39 39 39 38 38 37 36 37 37 36 36 35 33 33 32 30 29 29 29 29 30 31 30 30 30 31 31 31 32 34 35 35 33 30 29 29 29 30
31 31 31 32 32 33 34 32 30 29 29 30 30 29 30 32 33 35 36 36 36 36 37 37 37 36 37 37 37 37 35 33 33 33 34 34 33 31 31 30 27 25 26 26 28 29 30 30 29 30 31 32 33 34 31 28 27 26 25 26 29 31 34
30 30 31 31 31 31 32 32 30 29 29 29 29 29 30 32 33 35 36 35 35 35 37 37 37 36 36 36 36 35 32 30 29 29 31 32 32 32 32 30 26 26 26 26 27 28 30 30 31 31 33 34 34 33 32 31 33 35 35 36 37 37 39
31 31 30 30 30 30 31 31 30 28 28 29 29 29 29 31 33 35 35 35 35 35 35 36 35 34 34 33 31 29 27 24 24 26 28 30 31 34 35 32 29 29 29 28 28 28 30 31 32 34 35 36 37 36 37 38 40 40 40 40 40 40 40
30 31 30 29 30 30 30 30 29 28 28 28 29 28 29 30 32 34 34 33 33 33 34 35 34 32 30 27 25 25 24 23 23 26 29 31 33 35 35 33 32 32 32 31 31 31 32 33 33 34 35 36 37 37 38 38 39 40 41 41 41 41 42
30 30 30 29 29 30 29 29 29 28 27 28 29 29 28 29 32 32 32 33 33 33 33 33 32 30 27 25 24 24 24 24 25 25 28 31 33 33 31 29 29 29 29 30 30 30 32 33 33 34 34 35 35 36 36 37 37 39 40 41 43 44 45
30 30 30 30 30 30 29 28 28 28 28 29 30 30 28 29 30 30 29 30 31 31 30 30 30 30 28 28 27 26 25 25 24 23 25 27 28 27 26 25 24 23 23 25 26 28 30 31 33 34 35 36 37 37 37 38 39 40 42 44 46 46 47
30 30 30 30 30 30 29 28 28 28 29 30 31 30 28 27 26 25 24 26 29 30 30 31 32 33 33 32 30 28 25 24 23 24 26 26 25 25 27 27 26 26 27 28 29 30 33 34 36 38 40 41 42 42 42 43 44 44 45 45 46 46 47
30 30 31 31 31 31 30 29 28 28 29 30 30 29 27 24 23 22 22 25 28 30 32 34 35 36 35 33 29 25 23 23 25 28 29 28 26 29 30 30 31 32 32 34 35 37 39 40 41 43 44 45 45 45 45 45 45 45 45 44 43 43 43
30 30 31 31 33 33 31 29 29 29 28 28 28 27 25 23 22 23 24 27 30 32 33 34 34 32 31 28 25 23 24 26 28 29 30 30 31 33 34 34 35 36 36 38 39 40 42 42 42 43 43 43 43 43 44 44 44 43 43 41 40 40 40
30 30 31 32 33 34 32 31 31 30 28 26 25 25 24 24 25 26 26 27 28 28 27 27 26 25 24 24 25 26 28 30 31 31 32 33 34 35 36 36 37 37 38 39 39 39 39 40 39 40 40 40 41 42 41 41 40 40 39 37 36 37 38
30 31 31 32 33 34 33 32 31 30 27 25 25 26 27 27 25 22 20 20 21 21 22 23 23 24 25 26 27 29 31 32 32 32 32 33 33 34 35 35 36 36 37 37 37 38 39 40 40 41 41 41 41 40 38 37 36 35 35 34 33 34 37
31 31 31 31 33 34 34 34 33 30 28 28 28 29 28 26 22 19 18 20 21 22 24 25 26 27 28 28 30 31 32 33 32 32 32 32 33 34 34 35 36 36 37 37 38 39 41 42 43 43 42 40 38 36 35 33 31 31 32 32 31 33 36
30 31 30 30 32 33 34 34 34 32 30 31 31 29 26 24 23 23 24 26 26 25 26 27 28 28 29 29 30 31 32 32 33 33 33 33 34 35 35 35 36 37 37 38 38 40 41 42 42 41 39 37 35 33 32 31 30 30 30 30 31 33 35
30 30 29 29 31 31 33 35 35 33 32 32 29 25 24 25 27 28 29 28 26 24 25 27 29 29 29 29 30 31 31 32 32 33 33 33 33 34 34 35 36 36 37 37 38 39 39 38 37 36 35 34 33 32 30 29 29 29 29 30 31 33 35
28 27 26 27 29 30 33 36 36 34 31 29 26 24 23 25 27 27 26 26 25 24 26 28 30 31 31 30 30 31 31 31 31 32 32 32 33 33 34 35 36 36 36 36 36 35 35 34 34 33 33 32 31 31 30 29 27 28 28 29 31 33 34
27 26 25 25 27 29 32 34 34 33 31 30 29 27 27 28 28 28 27 28 30 32 34 34 34 35 34 33 33 33 32 31 31 31 31 32 33 34 35 35 35 34 34 33 32 32 32 32 31 31 31 30 29 29 29 28 27 27 28 29 30 32 33
27 28 27 28 29 30 32 34 35 35 34 33 32 32 32 33 33 33 32 31 33 35 36 36 35 35 35 34 33 32 31 30 31 31 32 33 35 35 36 35 34 32 31 30 29 29 29 29 29 29 28 28 27 28 28 28 28 28 28 29 30 31 32
27 27 28 28 28 29 30 32 33 34 34 33 33 33 32 31 31 29 27 26 28 31 32 32 32 32 32 32 31 31 31 32 32 33 34 35 35 35 35 33 31 30 28 27 26 27 27 27 27 26 26 26 26 27 28 28 28 28 28 29 30 31 32
30 28 28 28 27 27 27 28 30 31 32 31 31 28 26 25 25 26 26 26 28 30 31 32 33 34 34 34 34 34 34 34 34 35 35 35 34 34 32 30 28 26 25 24 24 25 25 25 25 25 24 25 25 26 27 28 28 28 28 29 29 30 31
32 30 29 28 27 26 25 26 28 29 29 28 25 22 20 23 27 29 30 31 31 31 32 33 35 35 36 36 36 36 36 36 35 35 34 33 32 30 28 27 25 24 22 22 23 23 23 23 23 23 23 23 25 26 27 28 27 27 28 28 28 29 30
Wind_Direction
285 286 286 284 282 283 284 285 286 287 287 287 287 287 285 284 283 282 284 285 285 285 285 282 280 278 277 278 280 281 282 283 281 277 273 271 270 269 268 268 267 268 274 279 281 282 287 292 295 295 296 298 299 300 302 302 303 305 306 305 304 303 302
284 285 284 282 281 282 283 284 285 286 286 286 287 286 284 282 281 281 282 283 283 284 284 282 280 278 278 278 279 281 283 283 281 277 273 270 269 269 269 269 269 270 274 279 282 285 289 292 294 296 298 299 299 300 301 303 304 305 304 304 304 304 303
283 283 282 280 281 281 282 284 284 285 285 286 286 285 283 281 280 280 281 281 282 283 283 281 279 278 279 280 281 282 284 283 280 276 273 271 269 269 269 270 270 270 273 278 283 286 288 291 294 295 296 299 300 300 301 303 303 303 303 304 304 303 301
282 281 280 279 280 280 281 282 283 284 285 286 286 284 282 281 279 279 280 280 282 283 282 281 279 279 280 281 282 283 283 281 278 275 273 271 270 269 270 270 270 270 272 276 281 284 287 290 292 293 295 297 299 300 302 303 302 302 303 303 303 300 298
280 279 278 278 279 280 280 281 282 284 285 286 286 284 282 281 280 280 280 280 281 282 282 281 280 280 281 282 282 281 280 279 277 275 272 270 269 269 270 270 270 271 272 274 278 282 286 289 290 292 294 296 298 300 302 302 301 301 303 302 300 298 298
279 278 278 278 279 279 279 280 282 283 285 285 284 283 282 281 281 281 281 281 282 283 282 282 282 282 282 281 280 279 278 277 275 273 271 269 269 269 270 270 271 271 273 274 276 280 283 286 289 291 292 294 296 298 299 301 301 301 301 301 300 300 300
278 277 278 278 277 277 278 280 281 283 284 285 284 283 283 282 282 282 282 282 283 284 283 283 282 282 280 278 277 277 276 276 275 273 271 270 270 270 269 269 271 272 273 273 275 277 280 283 286 288 289 291 294 295 295 299 302 301 300 302 303 301 300
277 277 276 276 276 277 279 280 281 283 284 285 284 283 283 283 283 283 283 284 284 283 283 281 280 279 277 276 276 276 276 275 274 272 271 270 270 269 269 269 270 271 272 273 274 276 278 282 284 285 286 288 291 292 294 299 303 301 301 304 304 300 300
276 276 276 276 277 278 280 281 283 285 285 285 285 285 285 284 284 284 284 284 284 283 281 280 279 278 277 277 276 276 276 274 272 270 269 270 270 269 268 268 270 271 272 272 273 274 277 280 281 283 286 287 289 292 296 301 300 299 301 305 303 299 300
276 276 277 278 279 280 281 282 284 286 286 286 287 287 286 287 288 288 287 286 285 283 281 280 279 278 278 278 277 277 276 275 273 272 271 271 270 268 268 269 270 271 272 272 273 274 277 277 279 283 286 286 289 293 296 297 297 298 300 303 301 299 302
276 277 278 280 280 281 282 283 285 286 286 286 286 285 285 288 291 290 289 287 286 284 284 283 282 281 280 280 279 279 277 276 274 273 272 272 272 271 271 272 273 274 273 273 273 275 276 277 280 285 286 287 289 291 292 294 296 296 295 295 296 297 301
277 278 280 281 281 281 282 283 285 285 286 286 286 284 283 283 283 283 283 283 283 282 282 281 281 282 281 281 280 280 278 276 275 273 272 272 272 270 269 270 273 275 276 276 276 276 277 278 280 284 285 286 287 288 290 293 293 291 291 291 291 292 296
279 279 280 280 281 281 283 284 285 285 285 285 286 286 284 280 278 277 277 278 278 278 277 277 277 279 280 280 280 279 278 276 275 275 273 272 270 268 266 266 268 269 270 272 272 272 274 275 277 279 280 281 284 286 288 288 287 287 288 288 288 291 294
279 279 280 280 281 283 283 284 285 285 285 286 287 287 285 281 278 276 275 274 274 274 274 274 274 275 276 277 278 277 276 276 275 275 275 273 272 271 270 269 268 266 264 263 262 263 265 267 270 272 274 277 281 282 281 280 282 286 287 287 288 290 291
279 279 280 281 282 283 283 284 285 286 287 288 288 289 285 279 275 273 272 272 271 271 272 272 272 272 273 274 275 275 275 274 274 274 274 274 273 273 273 272 271 270 268 265 262 261 263 265 268 270 272 274 275 274 276 279 284 288 288 287 287 287 285
279 280 281 282 282 282 283 286 287 287 288 289 289 288 284 279 276 274 273 272 271 271 272 271 271 272 272 273 274 274 275 275 275 275 274 273 273 273 274 274 274 273 271 269 268 267 267 268 269 271 272 275 277 278 282 285 286 286 285 284 284 283 282
279 280 281 282 282 283 285 288 289 289 289 290 289 289 286 283 281 279 278 277 276 276 275 274 274 273 273 274 274 275 275 275 274 274 273 274 275 276 275 274 274 273 269 267 267 267 269 270 271 272 274 276 278 278 277 277 276 276 278 280 281 280 282
279 280 281 283 284 285 287 289 291 292 292 291 291 289 286 284 282 279 277 276 275 274 275 275 275 274 274 275 276 277 277 275 273 270 268 270 273 275 275 276 278 277 273 269 266 264 264 263 263 265 267 267 268 266 264 265 271 276 280 282 282 282 284
280 282 283 284 286 287 288 291 293 294 294 293 292 289 286 283 281 279 278 277 277 276 276 276 275 275 276 278 280 280 278 274 272 269 268 270 271 270 273 279 284 284 281 279 274 270 266 264 262 262 263 264 265 265 266 269 274 278 280 281 281 282 285
282 283 285 286 287 288 289 292 294 296 296 294 292 289 286 282 279 278 278 277 277 277 278 279 281 280 281 281 280 278 276 273 269 269 271 273 273 273 278 284 283 280 278 276 273 270 270 269 268 267 267 267 268 269 270 272 275 277 278 280 281 282 283
283 284 286 287 287 289 290 292 296 297 297 295 292 290 285 279 277 276 274 273 272 273 276 279 281 281 281 279 275 271 271 271 270 270 272 273 274 277 281 280 273 268 266 265 264 263 264 266 266 266 267 268 268 269 269 269 270 272 274 277 279 281 282
283 284 287 288 288 289 292 294 296 297 297 295 293 291 286 280 276 275 273 273 275 278 280 281 282 283 282 280 279 276 275 275 276 275 272 271 271 273 271 264 259 259 259 259 259 259 260 262 265 267 268 269 269 270 270 270 269 270 271 273 276 277 279
284 285 286 288 289 290 292 295 297 296 296 295 294 293 289 281 275 272 269 269 272 275 276 276 277 277 277 278 280 281 280 280 279 274 270 268 265 263 261 260 261 264 265 266 266 266 267 269 271 273 274 275 276 276 277 277 276 276 275 274 275 275 275
284 285 286 288 289 291 294 296 296 295 296 297 296 293 289 282 275 269 264 263 266 267 267 268 270 273 277 281 283 282 278 274 270 266 265 264 261 260 262 265 268 269 271 272 273 274 275 276 277 278 279 280 281 281 281 280 280 279 278 277 275 274 274
284 284 286 287 289 292 295 296 296 296 298 298 295 292 289 282 276 271 267 265 265 265 266 268 271 274 277 277 274 269 264 261 260 260 262 262 261 263 264 267 270 272 274 275 276 277 278 278 279 280 281 281 282 282 281 281 280 279 279 278 277 276 275
283 284 286 287 290 293 296 296 295 296 297 296 292 289 284 280 277 277 275 271 269 268 269 271 272 273 272 268 263 259 258 258 258 260 261 262 263 265 266 268 271 273 274 276 277 278 279 280 282 283 284 284 284 283 281 280 280 279 278 278 279 279 278
283 284 286 288 292 294 295 295 294 295 296 294 291 289 287 287 286 283 277 272 273 275 275 275 274 272 269 266 264 263 263 263 264 264 265 266 267 268 269 271 273 274 276 277 279 281 283 285 287 288 288 287 285 283 281 280 280 280 279 280 282 282 280
284 285 287 291 292 293 294 294 293 295 296 296 295 294 295 295 294 290 285 284 286 285 282 277 273 270 267 264 264 264 266 268 269 269 268 268 268 269 270 272 273 274 277 279 282 284 287 289 289 289 288 287 285 283 281 280 280 280 280 281 282 282 281
285 286 288 289 290 291 293 294 295 298 298 298 300 301 301 300 299 296 293 293 293 290 284 278 273 269 267 266 265 266 267 268 269 270 269 269 269 269 270 271 272 274 277 280 283 285 286 287 287 286 286 285 284 282 280 279 279 279 279 279 279 279 281
286 289 291 292 292 295 296 296 297 298 297 297 299 300 298 297 297 295 294 295 293 286 279 275 273 270 269 268 267 267 268 268 269 269 269 270 270 270 271 272 274 277 281 283 284 284 284 284 284 283 284 284 283 281 279 277 276 276 276 277 278 279 281
290 292 293 292 291 292 292 292 293 295 295 296 296 293 286 283 282 282 283 285 283 276 271 272 273 273 272 272 271 271 272 272 271 271 271 271 271 272 274 277 279 282 285 285 285 284 283 283 282 282 282 282 281 280 279 277 276 275 275 276 278 280 282
290 289 285 280 277 276 277 279 282 285 286 287 286 282 276 272 269 267 265 266 268 269 270 272 274 275 276 275 275 275 276 276 275 274 274 274 275 278 280 282 285 287 287 286 285 283 282 281 280 280 281 280 279 280 280 278 277 275 275 277 279 281 283
286 285 283 279 275 273 273 274 276 278 279 279 278 276 273 271 271 271 270 270 271 273 274 274 275 275 276 276 276 276 277 276 275 275 276 277 280 283 285 288 289 288 287 285 284 282 280 280 280 280 280 279 279 278 279 278 278 277 277 278 280 282 284
289 288 286 283 280 278 277 278 279 279 279 279 277 277 277 278 278 277 274 269 266 267 269 271 272 272 273 274 275 275 276 275 276 277 278 281 283 285 288 288 288 286 285 284 282 280 279 279 280 280 280 280 278 277 277 277 277 278 278 279 281 283 285
298 296 293 290 288 286 285 283 282 281 281 281 281 283 286 285 281 276 270 263 260 261 264 267 269 271 272 274 274 275 275 276 277 278 280 282 285 286 286 286 285 285 285 283 281 279 279 280 280 280 280 279 277 276 276 276 276 277 278 280 282 285 287
301 301 299 297 296 295 293 289 286 284 284 285 287 288 285 277 272 272 271 269 267 266 267 267 269 271 271 272 273 274 275 276 278 279 281 282 283 284 284 284 285 285 285 284 282 282 282 282 282 281 280 279 276 275 275 276 277 278 278 280 283 286 287